Weather History for Topeka, KS

Change the Weather History Date:

Thursday, February 13, 2014

  Actual Average Record
Temperature  
Mean Temperature 35 °F 34 °F  
Max Temperature 48 °F 44 °F 74 °F (1921)
Min Temperature 22 °F 23 °F -22 °F (1905)
Degree Days  
Heating Degree Days 30 31  
Month to date heating degree days 616 427  
Since 1 July heating degree days 3877 3537  
Cooling Degree Days 0 0  
Month to date cooling degree days 0 0  
Year to date cooling degree days 0 0  
Moisture  
Dew Point 26 °F    
Average Humidity 67    
Maximum Humidity 85    
Minimum Humidity 49    
Precipitation  
Precipitation 0.00 in 0.05 in 0.88 in (1911)
Month to date precipitation 0.24 0.57  
Year to date precipitation 0.61 1.43  
Snow  
Snow 0.00 in 0.20 in 6.10 in (1978)
Month to date snowfall 14.8 2.4  
Year to date snowfall 18.7 7.3  
Since 1 July snowfall 23.0 13.8  
Snow Depth 4.00 in    
Sea Level Pressure  
Sea Level Pressure 29.85 in    
Wind  
Wind Speed 5 mph (SW)    
Max Wind Speed 14 mph    
Max Gust Speed 18 mph    
Visibility 8 miles    
Events      
T = Trace of Precipitation, MM = Missing Value Source: NWS Daily Summary

Daily Weather History Graph

Daily Weather History Graph

Search for Another Location

Airport:

Trip Planner

Search our weather history database for the weather conditions in past years. The results will help you decide how hot, cold, wet, or windy it might be!

Date:

Astronomy

Feb. 13, 2014 Rise Set
Actual Time 7:16 AM CST 5:57 PM CST
Civil Twilight 6:48 AM CST 6:25 PM CST
Nautical Twilight 6:17 AM CST 6:56 PM CST
Astronomical Twilight 5:46 AM CST 7:27 PM CST
Moon 5:06 PM CST (2/13) 6:10 AM CST (2/13)
Length of Visible Light 11h 36m
Length of Day
10h 41m
Waxing Gibbous, 99% of the Moon is Illuminated
Feb 13
Waxing Gibbous
Feb 14
Full
Feb 22
Last Quarter
Mar 1
New
Mar 8
First Quarter

Hourly Weather History & Observations

Time (CST) Temp. Windchill Dew Point Humidity Pressure Visibility Wind Dir Wind Speed Gust Speed Precip Events Conditions
12:53 AM 27.0 °F - 21.0 °F 78% 29.97 in 3.0 mi Calm Calm - N/A   Haze
1:53 AM 26.1 °F 20.5 °F 19.9 °F 78% 29.95 in 3.0 mi SE 4.6 mph - N/A   Haze
2:53 AM 28.0 °F 22.8 °F 21.9 °F 78% 29.93 in 4.0 mi SSW 4.6 mph - N/A   Haze
3:53 AM 28.0 °F 22.8 °F 23.0 °F 81% 29.90 in 4.0 mi SSW 4.6 mph - N/A   Haze
4:53 AM 28.9 °F 22.8 °F 24.1 °F 82% 29.89 in 5.0 mi SSW 5.8 mph - N/A   Haze
5:53 AM 30.0 °F 24.1 °F 24.1 °F 79% 29.89 in 6.0 mi SSW 5.8 mph - N/A   Haze
6:53 AM 28.9 °F 25.2 °F 23.0 °F 78% 29.88 in 6.0 mi SSW 3.5 mph - N/A   Haze
7:53 AM 26.1 °F - 21.9 °F 84% 29.90 in 4.0 mi Calm Calm - N/A   Clear
8:53 AM 33.1 °F 25.5 °F 26.1 °F 75% 29.89 in 7.0 mi SW 9.2 mph - N/A   Clear
9:53 AM 36.0 °F 29.0 °F 26.1 °F 67% 29.89 in 9.0 mi WSW 9.2 mph - N/A   Clear
10:53 AM 39.0 °F 31.8 °F 26.1 °F 60% 29.88 in 10.0 mi WSW 11.5 mph - N/A   Clear
11:53 AM 41.0 °F 35.2 °F 27.0 °F 57% 29.88 in 10.0 mi West 9.2 mph - N/A   Clear
12:53 PM 43.0 °F 38.2 °F 27.0 °F 53% 29.84 in 10.0 mi WSW 8.1 mph - N/A   Clear
1:53 PM 45.0 °F 40.6 °F 28.9 °F 53% 29.82 in 10.0 mi West 8.1 mph - N/A   Clear
2:53 PM 46.9 °F - 28.9 °F 50% 29.82 in 10.0 mi West 6.9 mph - N/A   Clear
3:53 PM 46.9 °F - 28.9 °F 50% 29.81 in 10.0 mi WSW 9.2 mph - N/A   Clear
4:53 PM 46.9 °F - 28.9 °F 50% 29.81 in 10.0 mi West 3.5 mph - N/A   Clear
5:53 PM 46.0 °F 43.9 °F 28.9 °F 51% 29.81 in 10.0 mi SSW 4.6 mph - N/A   Clear
6:53 PM 42.1 °F - 28.9 °F 60% 29.81 in 10.0 mi Calm Calm - N/A   Clear
7:53 PM 34.0 °F - 27.0 °F 75% 29.81 in 10.0 mi Calm Calm - N/A   Clear
8:53 PM 30.9 °F - 26.1 °F 82% 29.81 in 9.0 mi Calm Calm - N/A   Clear
9:53 PM 30.9 °F - 26.1 °F 82% 29.78 in 7.0 mi Calm Calm - N/A   Clear
10:53 PM 30.9 °F 27.5 °F 27.0 °F 85% 29.75 in 7.0 mi East 3.5 mph - N/A   Mostly Cloudy
11:53 PM 30.0 °F - 26.1 °F 85% 29.73 in 6.0 mi Calm Calm - N/A   Clear